This is the latest recevied weather packets stored in our database for station/object RV1CJ-14. If no packets are shown the sender has not sent any weather packets the latest 10 day(s).
| Time | Temp. | Humidity | Pressure | Rain* | Wind** | Luminosity | Snow |
|---|---|---|---|---|---|---|---|
| 1777198804 | 1.11° C | 93% | 987.2 hPa | 0 mm | - | 40 W/m² | - |
| 1777198204 | 1.11° C | 93% | 986.9 hPa | 0 mm | - | 39 W/m² | - |
| 1777197604 | 1.11° C | 93% | 986.7 hPa | 0 mm | - | 42 W/m² | - |
| 1777197004 | 1.11° C | 93% | 986.4 hPa | 0 mm | - | 40 W/m² | - |
| 1777196404 | 1.11° C | 93% | 986.2 hPa | 0 mm | - | 37 W/m² | - |
| 1777195804 | 1.11° C | 93% | 986 hPa | 0 mm | - | 44 W/m² | - |
| 1777195203 | 1.67° C | 93% | 985.8 hPa | 0 mm | - | 42 W/m² | - |
| 1777194603 | 1.67° C | 93% | 985.5 hPa | 0 mm | - | 54 W/m² | - |
| 1777194004 | 1.11° C | 93% | 985.3 hPa | 0 mm | - | 42 W/m² | - |
| 1777193403 | 1.11° C | 93% | 985.1 hPa | 0 mm | - | 47 W/m² | - |
| 1777192804 | 1.11° C | 93% | 985 hPa | 0 mm | - | 33 W/m² | - |
| 1777192204 | 1.11° C | 92% | 984.7 hPa | 0 mm | - | 42 W/m² | - |
| 1777191603 | 1.67° C | 93% | 984.6 hPa | 0 mm | - | 40 W/m² | - |
| 1777191004 | 1.67° C | 93% | 984.4 hPa | 0 mm | - | 37 W/m² | - |
| 1777190404 | 1.67° C | 93% | 984.2 hPa | 0 mm | - | 49 W/m² | - |
| 1777189804 | 1.67° C | 92% | 984.1 hPa | 0 mm | - | 53 W/m² | - |
| 1777189203 | 1.67° C | 93% | 984 hPa | 0 mm | - | 47 W/m² | - |
| 1777188604 | 2.22° C | 93% | 983.8 hPa | 0 mm | - | 35 W/m² | - |
| 1777188004 | 2.22° C | 93% | 983.7 hPa | 0 mm | - | 33 W/m² | - |
| 1777187403 | 1.67° C | 93% | 983.5 hPa | 0 mm | - | 37 W/m² | - |
| 1777186804 | 1.67° C | 93% | 983.5 hPa | 0 mm | - | 32 W/m² | - |
| 1777186203 | 1.67° C | 93% | 983.3 hPa | 0 mm | - | 37 W/m² | - |
| 1777185604 | 1.67° C | 93% | 983.2 hPa | 0 mm | - | 32 W/m² | - |
| 1777185003 | 2.22° C | 93% | 983.1 hPa | 0 mm | - | 26 W/m² | - |
| 1777184404 | 2.22° C | 93% | 983.1 hPa | 0 mm | - | 26 W/m² | - |
* Rain latest hour (hover to see other rain measurements)
** Current wind speed in m/s (hover to see current wind gust speed)